Home > Weather > Suzuka > Past weeks

Flag for Japan Past Weather in Suzuka, Japan — Yesterday and Last 2 Weeks

Now
82 °F

Warm.


Feels Like: 85 °F
Forecast: 77 / 89 °F
Wind: 12 mph from Northwest

Location: Tsu

Current Time: Aug 26, 2016 at 11:02:47 PM

Latest Report: Aug 26, 2016 at 10:00 PM


Visibility: N/A

Pressure: 29.67 "Hg

Humidity: 67%

Dew Point: 69 °F

Location of SuzukaLocation

Past Weather in Suzuka — Graph

°F

Suzuka Temperature Yesterday

Maximum temperature yesterday: 86 °F (at 3:00 PM)
Minimum temperature yesterday: 77 °F (at 4:00 AM)
Average temperature yesterday: 81 °F

High & Low Weather Summary for the Past Weeks

 TemperatureHumidityPressure
High95 °F (Aug 22, 2:00 PM)90% (Aug 25, 4:00 AM)29.85 "Hg (Aug 25, 4:00 AM)
Low75 °F (Aug 26, 6:00 AM)38% (Aug 23, 12:00 PM)29.47 "Hg (Aug 16, 7:00 PM)
Average84 °F70%29.68 "Hg
* Reported Aug 11 9:00 PM — Aug 26 9:00 PM, Suzuka, Weather by CustomWeather, © 2016

Note: Actual official high and low records may vary slightly from our data, if they occured in-between our weather recording intervals... More about our weather records

Advertising

Suzuka Weather History for the Previous 24 Hours

Scroll right to see more
 ConditionsComfort  
Time TempWeatherWind HumidityBarometerVisibility
9:00 PM
Fri, Aug 26
84 °FSprinkles. Overcast.6 mph69%29.67 "Hg12 mi
8:00 PM84 °FWarm.5 mph71%29.66 "HgN/A
7:00 PM85 °FWarm.1 mph72%29.64 "HgN/A
6:00 PM85 °FWarm.6 mph71%29.63 "HgN/A
5:00 PM86 °FWarm.7 mph68%29.63 "HgN/A
4:00 PM87 °FWarm.9 mph61%29.63 "HgN/A
3:00 PM87 °FPassing clouds.12 mph58%29.64 "Hg19 mi
2:00 PM88 °FHot.10 mph56%29.65 "HgN/A
1:00 PM87 °FWarm.9 mph56%29.67 "HgN/A
12:00 PM86 °FWarm.6 mph58%29.70 "HgN/A
11:00 AM86 °FWarm.5 mph60%29.71 "HgN/A
10:00 AM84 °FWarm.6 mph68%29.73 "HgN/A
9:00 AM82 °FScattered clouds.3 mph71%29.73 "Hg19 mi
8:00 AM80 °FWarm.2 mph75%29.73 "HgN/A
7:00 AM78 °FWarm.2 mph82%29.73 "HgN/A
6:00 AM75 °FMild.3 mph86%29.72 "HgN/A
5:00 AM76 °FMild.3 mph86%29.71 "HgN/A
4:00 AM76 °FMild.5 mph86%29.71 "HgN/A
3:00 AM77 °FMild.3 mph85%29.72 "HgN/A
2:00 AM77 °FWarm.2 mph85%29.72 "HgN/A
1:00 AM78 °FWarm.1 mph84%29.72 "HgN/A
12:00 AM79 °FWarm.2 mph81%29.74 "HgN/A
11:00 PM
Thu, Aug 25
80 °FWarm.6 mph81%29.75 "HgN/A
Weather by CustomWeather, © 2016

See weather overviewHow to use our weather pages